Vertical_Velocity
0 -3 -1 -1 -4 -4 -1 -2 0 0 2 -1 -2 2 3 6 1 16 -1 2 -0 1 -0 -3 -6 0 1 -0 0 -5 -3 -1 -2 -2 -1 1 2 1 1 1 0 -6 6 -2 4 -3 -2
-0 -0 1 -1 -0 -2 -1 -2 -2 -3 -2 2 -1 -1 -1 2 4 3 4 -4 7 -4 3 -6 -4 -0 -3 4 -4 -2 -1 -1 -1 -5 4 2 -1 -1 -1 -1 9 2 1 -8 2 -3 -2
-1 -2 -5 -5 -4 -2 -2 -3 -3 -1 -4 -3 -0 -1 -2 -3 3 3 -1 10 -3 1 -6 -1 -6 -3 2 -0 -7 -4 -0 2 -1 -1 3 0 -2 1 0 -4 -1 -3 2 1 -2 -3 -17
-1 -4 -4 -2 0 -1 -0 -1 -2 -1 -3 -2 -3 2 2 2 -2 7 1 -2 5 -4 1 -1 -4 -2 1 5 -5 -7 -4 1 -6 1 -0 2 -0 0 3 0 -8 12 9 3 -6 -11 -11
-0 -5 -3 1 -2 -6 -4 -3 -5 1 -1 -2 1 -3 1 -1 -1 3 6 -4 25 19 -4 -3 -2 4 -0 4 -3 -6 2 -4 -5 -1 -1 1 -1 2 -1 3 8 7 4 1 -11 -3 7
-1 -1 -2 -3 -5 -2 -3 -5 1 -6 -3 1 -3 -1 1 -1 -2 6 4 -2 19 2 -5 -2 0 0 2 1 -8 3 -2 -3 -2 1 2 -1 2 2 1 9 0 6 -3 -5 -10 -5 12
-5 -1 -3 -3 -6 -4 -3 -2 -2 0 1 -2 -0 1 -2 1 11 4 -3 1 -5 -2 -0 3 1 -1 3 -1 -5 -1 -2 -3 2 2 -0 3 4 -5 10 -3 3 -1 4 0 15 7 9
-5 -6 -2 -1 -3 2 1 -1 1 2 -1 -1 8 -3 -0 -3 8 21 16 17 16 6 -5 -1 1 1 -1 -1 -5 -1 -4 4 4 1 -3 -1 -3 3 4 -1 -3 -4 3 7 9 7 2
-4 -1 -3 -2 -1 -0 -2 1 2 -0 1 -1 -0 1 -1 -4 -3 -4 6 2 -4 9 0 -1 0 1 -1 -1 -3 -2 -2 6 0 -0 -1 2 -0 5 -4 1 -1 -3 5 -4 -2 -1 4
-4 -0 -1 -2 -1 -2 -1 0 -0 3 0 -1 1 -3 3 -4 -5 -1 0 9 10 -0 2 1 3 -2 1 -4 1 -4 2 -2 -0 2 -2 1 -1 -6 8 9 -1 2 0 4 -8 2 4
-1 -5 -2 -2 0 -1 1 -2 -0 2 5 -1 -1 -1 1 -3 -5 -1 4 -1 11 2 4 1 -1 4 -2 -2 -1 1 0 2 -1 -1 -3 2 -1 -1 2 0 -0 7 -4 -3 5 10 7
-6 -2 -4 -5 -1 -3 1 1 2 0 -1 2 1 2 -7 6 -9 1 10 4 9 1 -1 0 0 2 -2 2 -1 -1 4 4 -1 9 -2 -3 2 11 -7 -4 -1 6 4 -0 -3 -2 -0
0 -2 1 -5 -3 -1 -1 0 -1 -0 2 1 -2 -3 -2 1 4 -2 6 14 2 2 1 1 -3 0 1 -0 -1 3 1 3 1 1 2 1 5 11 -0 7 6 0 3 0 3 -3 4
3 10 10 -8 -4 -2 -1 -1 -1 1 3 3 5 4 10 -2 -5 2 18 14 3 2 3 2 1 -0 4 -3 -0 -1 3 3 6 -1 4 5 -1 0 4 -2 0 2 2 6 1 0 3
0 11 8 -9 -2 -3 2 -1 -1 2 1 -2 2 4 6 -7 -10 -1 15 4 5 1 5 -0 2 1 0 3 -1 1 2 0 3 2 7 1 -0 1 0 2 -3 -10 -4 -2 1 -0 -4
4 25 5 0 0 -0 1 -2 -1 2 -1 -0 -7 16 8 -4 1 -3 18 3 -1 -2 4 -1 3 1 -2 2 -0 2 2 2 1 -3 0 2 -3 -1 -0 2 3 1 -2 -3 -1 1 1
2 22 -1 -1 -1 -3 -0 -3 -0 1 -1 6 4 10 20 10 4 12 5 0 -1 1 5 -3 3 2 -3 -1 -0 0 -2 -1 3 4 -1 0 -1 1 5 -0 2 3 5 5 -3 -2 0
12 12 1 -3 -3 -1 -0 1 -0 -0 4 4 1 3 -3 17 0 11 2 0 -1 -1 -3 -4 -0 2 3 2 -0 -0 -1 -1 -1 -1 2 2 -5 -2 -0 -2 -4 1 1 5 4 3 -2
7 0 1 -5 0 -2 -1 0 -3 0 -0 -7 7 12 13 -3 -6 4 3 -1 -3 -4 0 -1 4 -2 3 3 -2 -0 1 1 -1 -2 -2 -3 -1 -2 -2 -5 -4 -2 -0 2 2 0 -0
5 2 -5 -0 1 -1 -0 -3 -3 2 -6 2 -3 15 6 7 -1 0 -3 -6 4 -5 -0 0 2 -0 4 4 0 -0 -0 -0 1 -3 -4 -5 -4 -1 2 2 -0 -1 1 1 0 -2 7
2 -2 -2 -1 -2 -3 -1 -7 -1 -3 -4 -1 -3 6 -5 3 -2 -3 -2 -1 -3 11 -2 -2 3 3 3 -0 -2 -0 -1 -3 -1 1 2 0 -4 -3 -3 -3 -1 2 -1 -4 -3 -0 -2
0 -2 -1 1 -4 -6 -3 -1 -4 -4 0 -2 -8 -3 1 -0 -3 -1 -4 -4 1 -0 -3 -0 6 -0 2 -1 -2 -0 0 -2 -3 -0 3 1 -1 2 -3 -2 2 -1 1 -0 -4 0 2
3 0 -4 1 -2 -1 -3 -2 -6 -5 -3 0 -5 -7 -1 -0 0 -0 -3 -2 0 0 -0 -2 3 3 3 -1 -1 -3 -1 -0 -2 -2 -1 -0 -1 1 1 2 1 2 -0 2 -5 -2 -3
2 3 -4 -2 -1 -6 -3 -5 -7 -5 -2 -0 -4 -2 -5 -1 0 1 2 -3 -0 2 -3 -4 0 9 1 -1 -1 -0 -3 -2 -1 -1 -2 -2 -2 -0 -3 -1 -1 -3 -2 -4 -6 -5 -0
0 3 2 -3 -1 -7 -5 -3 -3 -5 -2 0 -3 -1 -5 0 2 0 -2 1 -3 -1 -1 1 3 1 1 -0 -2 -3 -2 0 -1 -1 -1 -1 -0 -3 -1 -2 -4 -1 -4 -0 2 0 -1
5 -10 3 -4 -1 -3 -4 -5 -3 -4 -2 -3 -2 -3 -4 -1 -3 -2 -3 -2 -2 -2 1 -2 -0 0 2 1 -0 -0 2 -0 -1 -5 -6 -5 -3 -1 -2 -0 -1 -1 -0 0 -0 1 -0
3 3 1 -6 -2 1 -1 -3 -4 -1 0 -4 -2 -3 -2 -2 -2 -3 -4 -4 -5 6 -2 -1 -2 -0 4 -0 -1 -1 -1 -2 1 1 -2 -1 -2 -1 -2 -0 -2 -3 -2 -4 -3 -3 -5
2 -2 -1 -1 -5 -1 3 -1 -4 -3 0 -4 -3 -1 0 1 -0 -3 -1 -0 -1 0 -1 2 -1 -2 -1 1 -1 -2 0 -1 -0 -1 -1 -1 -1 -3 -0 -0 -2 -1 0 -2 -1 -0 1
-3 -6 -3 -1 -6 -3 1 2 -3 -8 -1 -3 -6 -3 1 2 -1 -3 -2 -2 -3 -4 -4 -2 1 0 -2 -0 -2 -1 -0 -2 -2 1 -3 -4 -6 -1 -2 -1 -3 -3 -3 -2 -3 -2 -2
Height
3126 3121 3117 3112 3106 3102 3098 3093 3089 3086 3083 3080 3077 3073 3072 3073 3071 3071 3068 3067 3067 3065 3063 3061 3058 3055 3052 3051 3050 3044 3042 3040 3039 3039 3038 3037 3036 3037 3035 3034 3034 3031 3030 3031 3031 3034 3037
3120 3115 3109 3103 3099 3095 3090 3084 3080 3077 3074 3072 3069 3066 3065 3064 3062 3062 3061 3061 3060 3058 3057 3055 3052 3049 3048 3048 3044 3040 3038 3037 3035 3035 3035 3033 3032 3033 3030 3029 3028 3026 3025 3024 3025 3026 3029
3114 3108 3103 3098 3092 3087 3082 3077 3075 3069 3065 3063 3060 3059 3055 3053 3053 3053 3053 3056 3054 3053 3051 3050 3046 3045 3043 3042 3040 3036 3034 3032 3029 3029 3029 3030 3029 3028 3026 3024 3024 3021 3020 3019 3018 3020 3021
3108 3104 3098 3093 3087 3082 3077 3071 3065 3061 3055 3051 3050 3048 3046 3044 3044 3044 3046 3046 3047 3046 3045 3044 3041 3039 3038 3037 3035 3032 3030 3028 3024 3023 3025 3025 3025 3023 3022 3020 3020 3017 3018 3016 3012 3015 3016
3103 3098 3092 3086 3078 3072 3067 3061 3056 3053 3047 3043 3040 3037 3036 3036 3035 3034 3037 3039 3040 3039 3039 3039 3036 3035 3035 3033 3032 3028 3026 3025 3023 3023 3023 3023 3022 3021 3019 3015 3016 3014 3012 3012 3012 3012 3017
3099 3091 3083 3076 3070 3064 3057 3051 3047 3040 3038 3034 3032 3030 3028 3028 3026 3026 3029 3032 3033 3034 3034 3033 3031 3034 3031 3030 3028 3025 3023 3022 3020 3020 3021 3020 3019 3018 3016 3015 3013 3012 3013 3011 3011 3013 3016
3091 3082 3076 3069 3062 3055 3049 3042 3036 3031 3027 3024 3024 3022 3022 3021 3023 3023 3024 3025 3029 3029 3028 3028 3026 3026 3025 3026 3024 3022 3021 3020 3019 3019 3019 3019 3018 3014 3014 3010 3010 3009 3011 3009 3010 3012 3015
3084 3077 3069 3062 3056 3050 3043 3036 3030 3024 3020 3016 3017 3015 3016 3017 3016 3017 3018 3019 3021 3023 3022 3021 3019 3021 3021 3023 3021 3020 3019 3019 3018 3018 3018 3019 3013 3013 3010 3007 3008 3010 3011 3010 3009 3010 3013
3079 3071 3064 3057 3050 3042 3035 3028 3024 3020 3016 3012 3009 3010 3009 3011 3011 3010 3010 3014 3016 3016 3017 3016 3015 3017 3019 3020 3018 3017 3016 3016 3016 3017 3017 3014 3012 3009 3009 3008 3008 3009 3010 3009 3008 3010 3013
3073 3066 3059 3050 3042 3034 3027 3022 3018 3015 3011 3008 3005 3003 3002 3002 3006 3004 3006 3008 3011 3012 3013 3012 3010 3013 3016 3016 3018 3015 3015 3016 3015 3017 3016 3013 3011 3009 3008 3009 3009 3009 3010 3010 3010 3012 3012
3068 3061 3053 3045 3036 3027 3021 3016 3012 3008 3004 3002 2999 2996 2996 2995 2998 2998 3001 3005 3007 3008 3010 3009 3007 3009 3011 3015 3016 3015 3014 3013 3015 3016 3016 3014 3011 3009 3008 3009 3009 3011 3010 3010 3011 3009 3007
3061 3054 3046 3038 3028 3020 3015 3010 3005 3001 2998 2993 2990 2989 2988 2990 2993 2995 2996 3001 3003 3008 3003 3003 3005 3007 3010 3012 3013 3013 3013 3014 3013 3013 3014 3012 3009 3006 3005 3006 3007 3009 3012 3013 3013 3013 3014
3054 3046 3038 3030 3020 3014 3009 3003 2999 2995 2990 2985 2981 2979 2980 2981 2989 2989 2993 2998 3003 3000 3000 3001 3003 3006 3009 3012 3013 3013 3014 3014 3013 3013 3012 3011 3008 3006 3006 3007 3009 3012 3012 3012 3011 3008 3014
3047 3039 3030 3021 3014 3008 3003 2998 2993 2988 2982 2977 2973 2971 2970 2971 2980 2984 2990 2996 2997 2994 2996 2996 3001 3005 3009 3011 3013 3013 3013 3012 3011 3010 3010 3011 3012 3010 3010 3010 3011 3012 3011 3008 3008 3009 3015
3044 3033 3024 3013 3008 3003 2998 2993 2988 2982 2977 2972 2966 2959 2951 2957 2969 2979 2989 2992 2992 2993 2995 2996 3002 3006 3008 3011 3013 3012 3013 3014 3013 3012 3013 3013 3013 3013 3013 3015 3018 3017 3016 3013 3012 3016 3018
3036 3027 3017 3008 3003 2998 2994 2989 2984 2978 2974 2968 2959 2948 2947 2951 2965 2976 2987 2990 2992 2993 2994 2997 3002 3004 3008 3010 3012 3012 3013 3015 3015 3014 3013 3015 3016 3015 3016 3017 3019 3019 3020 3019 3017 3016 3020
3031 3021 3010 3005 2999 2995 2990 2985 2980 2976 2972 2965 2956 2951 2955 2961 2970 2980 2986 2990 2992 2993 2995 2999 3002 3004 3007 3009 3011 3012 3014 3016 3015 3016 3016 3017 3018 3021 3019 3019 3017 3017 3018 3018 3019 3019 3016
3026 3016 3009 3002 2996 2992 2987 2983 2979 2975 2970 2963 2957 2956 2961 2970 2977 2982 2987 2990 2993 2994 2997 3000 3003 3005 3008 3010 3012 3012 3015 3017 3017 3018 3018 3019 3021 3022 3022 3022 3021 3020 3018 3016 3017 3023 3021
3023 3015 3006 3000 2994 2990 2986 2982 2979 2975 2971 2965 2960 2962 2970 2977 2982 2985 2988 2991 2995 2996 2999 3003 3005 3007 3009 3011 3014 3014 3016 3019 3020 3019 3020 3021 3023 3025 3025 3027 3025 3025 3024 3022 3020 3021 3024
3016 3009 3003 2997 2993 2989 2985 2982 2980 2976 2973 2972 2969 2972 2979 2983 2984 2988 2991 2994 2996 2999 3001 3004 3007 3008 3010 3011 3013 3015 3018 3020 3022 3022 3023 3024 3024 3024 3027 3028 3027 3028 3026 3025 3026 3027 3031
3012 3006 3000 2995 2992 2989 2985 2983 2980 2977 2976 2976 2975 2977 2982 2985 2988 2991 2994 2995 2997 2999 3003 3006 3009 3010 3012 3013 3015 3017 3019 3021 3023 3024 3024 3026 3028 3029 3029 3028 3028 3028 3029 3029 3030 3030 3033
3009 3004 2998 2993 2990 2987 2985 2982 2980 2979 2979 2981 2980 2981 2985 2988 2991 2993 2995 2996 2998 3002 3004 3008 3010 3012 3014 3014 3016 3018 3020 3022 3023 3024 3025 3026 3028 3030 3032 3032 3032 3031 3031 3032 3033 3034 3036
3008 3003 2997 2992 2989 2986 2984 2983 2982 2981 2982 2984 2984 2985 2987 2990 2992 2993 2995 2999 3000 3002 3006 3008 3010 3013 3015 3017 3018 3020 3021 3022 3023 3024 3025 3027 3028 3029 3030 3031 3031 3034 3034 3034 3036 3037 3039
3008 3002 2996 2992 2988 2986 2984 2983 2983 2983 2985 2986 2986 2988 2990 2992 2993 2993 2994 2996 3000 3003 3006 3009 3012 3015 3017 3019 3021 3022 3023 3024 3025 3025 3026 3027 3029 3029 3030 3029 3031 3035 3034 3035 3037 3038 3039
3009 3002 2997 2994 2990 2988 2985 2984 2984 2985 2987 2988 2986 2989 2991 2993 2993 2992 2993 2996 3001 3005 3007 3010 3013 3017 3019 3021 3023 3025 3027 3027 3026 3027 3028 3029 3031 3032 3034 3034 3035 3034 3035 3036 3037 3038 3038
3009 3005 3001 2999 2995 2991 2989 2988 2988 2987 2988 2988 2989 2990 2993 2995 2995 2992 2994 2998 3002 3006 3009 3012 3015 3018 3020 3022 3025 3026 3027 3028 3030 3030 3030 3031 3031 3033 3033 3035 3034 3034 3035 3035 3036 3038 3037
3011 3007 3004 3002 3000 2996 2992 2990 2989 2989 2989 2990 2992 2993 2994 2996 2996 2995 2997 3000 3004 3007 3010 3014 3016 3019 3021 3023 3025 3026 3027 3028 3030 3030 3032 3033 3034 3035 3036 3036 3034 3033 3034 3035 3038 3040 3036
3013 3007 3004 3003 3000 2996 2992 2989 2988 2989 2991 2993 2994 2996 2997 2997 2998 3000 3002 3004 3007 3009 3012 3015 3019 3020 3022 3024 3026 3026 3027 3027 3029 3029 3029 3031 3033 3034 3036 3035 3033 3031 3033 3036 3036 3035 3035
3012 3009 3005 3004 3002 2996 2993 2989 2990 2992 2993 2994 2995 2997 2999 2999 3001 3002 3004 3007 3009 3011 3013 3015 3019 3020 3022 3024 3026 3026 3026 3026 3027 3029 3029 3030 3030 3031 3032 3032 3031 3031 3032 3032 3032 3032 3032